Weather History for Rogers, AR

Change the Weather History Date:

Friday, April 5, 2013

  Actual Average Record
Temperature  
Mean Temperature 52 °F -  
Max Temperature 70 °F 62 °F 78 °F (2001)
Min Temperature 35 °F 43 °F 30 °F (2007)
Degree Days  
Heating Degree Days 12    
Growing Degree Days 2 (Base 50)    
Moisture  
Dew Point 32 °F    
Average Humidity 47    
Maximum Humidity 83    
Minimum Humidity 24    
Precipitation  
Precipitation 0.00 in - - ()
Sea Level Pressure  
Sea Level Pressure 30.12 in    
Wind  
Wind Speed 3 mph (South)    
Max Wind Speed 13 mph    
Max Gust Speed 16 mph    
Visibility 10 miles    
Events      
Averages and records for this station are not official NWS values.
T = Trace of Precipitation, MM = Missing Value Source: NWS Daily Summary

Daily Weather History Graph

Daily Weather History Graph

Search for Another Location

Airport:

Trip Planner

Search our weather history database for the weather conditions in past years. The results will help you decide how hot, cold, wet, or windy it might be!

Date:

Astronomy

Apr. 05, 2013 Rise Set
Actual Time 6:56 AM CDT 7:42 PM CDT
Civil Twilight 6:30 AM CDT 8:08 PM CDT
Nautical Twilight 5:59 AM CDT 8:39 PM CDT
Astronomical Twilight 5:27 AM CDT 9:10 PM CDT
Moon 3:56 AM CDT (4/5) 3:14 PM CDT (4/5)
Length of Visible Light 13h 37m
Length of Day
12h 45m
Waning Crescent, 23% of the Moon is Illuminated
Apr 5
Waning Crescent
Apr 10
New
Apr 18
First Quarter
Apr 25
Full
May 2
Last Quarter

Hourly Weather History & Observations

Time (CDT) Temp. Windchill Dew Point Humidity Pressure Visibility Wind Dir Wind Speed Gust Speed Precip Events Conditions
12:57 AM 43.0 °F - 30.9 °F 62% 30.15 in 10.0 mi Calm Calm - N/A   Clear
1:57 AM 43.0 °F - 30.9 °F 62% 30.15 in 10.0 mi Calm Calm - N/A   Clear
2:57 AM 42.1 °F - 30.0 °F 62% 30.15 in 10.0 mi Calm Calm - N/A   Clear
3:57 AM 39.0 °F - 30.0 °F 70% 30.15 in 10.0 mi Calm Calm - N/A   Clear
4:57 AM 37.9 °F - 30.0 °F 73% 30.16 in 10.0 mi Calm Calm - N/A   Clear
5:57 AM 36.0 °F - 28.9 °F 76% 30.17 in 10.0 mi Calm Calm - N/A   Clear
6:57 AM 35.1 °F - 28.9 °F 78% 30.18 in 10.0 mi Calm Calm - N/A   Clear
7:57 AM 37.9 °F 34.4 °F 33.1 °F 83% 30.19 in 10.0 mi South 4.6 mph - N/A   Clear
8:57 AM 48.0 °F - 35.1 °F 61% 30.21 in 10.0 mi Calm Calm - N/A   Clear
9:57 AM 54.0 °F - 37.0 °F 53% 30.21 in 10.0 mi Calm Calm - N/A   Clear
10:57 AM 59.0 °F - 35.1 °F 41% 30.20 in 10.0 mi Variable 3.5 mph - N/A   Clear
11:57 AM 63.0 °F - 35.1 °F 35% 30.20 in 10.0 mi Variable 3.5 mph - N/A   Clear
12:57 PM 64.9 °F - 30.0 °F 27% 30.17 in 10.0 mi SSE 8.1 mph - N/A   Clear
1:57 PM 64.9 °F - 34.0 °F 32% 30.15 in 10.0 mi Calm Calm - N/A   Clear
2:57 PM 66.9 °F - 32.0 °F 27% 30.11 in 10.0 mi WSW 5.8 mph - N/A   Clear
3:57 PM 68.0 °F - 30.0 °F 24% 30.09 in 10.0 mi SW 5.8 mph - N/A   Clear
4:57 PM 70.0 °F - 33.1 °F 26% 30.06 in 10.0 mi South 9.2 mph 16.1 mph N/A   Clear
5:57 PM 69.1 °F - 35.1 °F 29% 30.04 in 10.0 mi SW 4.6 mph - N/A   Clear
6:57 PM 64.9 °F - 37.9 °F 37% 30.05 in 10.0 mi SW 6.9 mph - N/A   Clear
7:57 PM 62.1 °F - 32.0 °F 32% 30.04 in 10.0 mi South 10.4 mph - N/A   Clear
8:57 PM 59.0 °F - 30.0 °F 33% 30.03 in 10.0 mi SE 10.4 mph - N/A   Clear
9:57 PM 57.9 °F - 28.9 °F 33% 30.03 in 10.0 mi SSE 11.5 mph - N/A   Clear
10:57 PM 57.9 °F - 28.9 °F 33% 30.01 in 10.0 mi SE 12.7 mph - N/A   Clear
11:57 PM 57.0 °F - 32.0 °F 39% 29.99 in 10.0 mi SE 11.5 mph - N/A   Clear